Location: Besigheim
(48.9980°N, 9.1427°E)
Time: 16:20:40
(UTC+00:00)

SL-24 R/B - RUBIN 2 - Pass Details

Date: 21 February 2026
Orbit: 603 x 984 km, 64.6° (Epoch: 8 March)

Event Time Altitude Azimuth Distance (km) Brightness Sun altitude
Exits shadow 04:58:07 - 327° (NNW) 2,345 6.2 -14.3°
Reaches altitude 10° 05:00:09 10° 349° (NNW) 1,977 6.0 -14.0°
Maximum altitude 05:01:22 11° 5° (N) 1,905 6.1 -13.8°
Drops below altitude 10° 05:02:36 10° 21° (NNE) 1,962 6.4 -13.6°
Sets 05:06:39 0° 59° (ENE) 2,863 8.0 -12.9°
